Miscellaneous Local Product
Issued by NWS Hastings, NE

Home | Current Version | Previous Version | Text Only | Print | Product List | Glossary On
Versions: 1 2 3 4 5 6 7 8 9 10 11 12 13 14 15 16 17 18 19 20 21 22 23 24 25 26 27 28 29 30 31 32 33 34 35 36 37 38 39 40 41 42 43 44 45 46 47 48 49 50
000
AXUS43 KGID 010202
MISGRI

GID CWA HOURLY WEATHER ROUNDUP
NATIONAL WEATHER SERVICE HASTINGS NE
900 PM CDT MON AUG 31 2015

NOTE: "FAIR" INDICATES FEW OR NO CLOUDS BELOW 12,000 FEET WITH NO
SIGNIFICANT WEATHER AND/OR OBSTRUCTIONS TO VISIBILITY.

...SOUTH CENTRAL NEBRASKA...

CITY           SKY/WX    TMP DP  RH WIND       PRES   REMARKS
GRAND ISLAND   CLEAR     76  69  79 E7        29.91R
HASTINGS       CLEAR     78  66  66 SE7       29.90R
KEARNEY        CLEAR     72  64  78 NE7       29.90R
ORD            CLEAR     75  66  73 E6        29.89R
YORK           CLEAR     73  70  88 CALM      29.91R
AURORA         CLEAR     74  72  91 E7        29.91R
LEXINGTON      CLEAR     74  68  80 E6        29.90R
HOLDREGE       CLEAR     77  63  62 SE10      29.89R

...NEBRASKA PANHANDLE...

CITY           SKY/WX    TMP DP  RH WIND       PRES   REMARKS
CHADRON        CLOUDY    74  57  55 CALM      29.95R
ALLIANCE       CLOUDY    68  54  60 W9        30.03R
SCOTTSBLUFF    LGT RAIN  75  49  39 SW20G31   30.06R
SIDNEY         MOCLDY    72  50  45 E5        30.05R

...WESTERN AND NORTH CENTRAL NEBRASKA...

CITY           SKY/WX    TMP DP  RH WIND       PRES   REMARKS
VALENTINE      CLOUDY    73  61  65 NE6       29.95R
AINSWORTH      CLOUDY    73  64  75 N5        29.95R
ONEILL         PTCLDY    78  71  77 SE5       29.90R
BROKEN BOW     PTCLDY    72  68  87 CALM      29.92R
IMPERIAL       MOCLDY    78  59  51 N7        29.93R
NORTH PLATTE   MOCLDY    76  66  71 NE7       29.92R
MCCOOK         CLEAR     82  62  50 E10       29.88R

...EASTERN NEBRASKA...

CITY           SKY/WX    TMP DP  RH WIND       PRES   REMARKS
NORFOLK        CLEAR     75  70  84 SE7       29.90R
SO SIOUX CITY  CLEAR     73  67  81 SE7       29.89S
TEKAMAH        CLEAR     71  69  93 SE7       29.90R
COLUMBUS       CLEAR     73  66  78 E3        29.90R
ALBION         CLEAR     75  69  82 SE3       29.91R
OMAHA EPPLEY   CLEAR     78  69  73 SE7       29.91R
OFFUTT AFB     CLEAR     70  68  93 E6        29.91R
MILLARD        CLEAR     76  69  79 CALM      29.91R
LINCOLN        CLEAR     80  67  64 SE6       29.90R
NEBRASKA CITY  CLEAR     76  67  74 S7        29.92R
BEATRICE       CLEAR     79  69  71 SE6       29.90R
FALLS CITY     CLEAR     76  70  82 SE7       29.92R

...NORTHERN KANSAS...

CITY           SKY/WX    TMP DP  RH WIND       PRES   REMARKS
GOODLAND       PTCLDY    76  52  43 SE6       29.93R
HILL CITY      CLEAR     86  51  29 S10       29.88R
NORTON         CLEAR     81  45  28 S9        29.86S
PHILLIPSBURG   CLEAR     84  55  37 CALM      29.86R
SMITH CENTER   CLEAR     81  57  44 E13       29.88R
HAYS           CLEAR     84  54  34 SE13      29.89R
RUSSELL        CLEAR     84  57  39 SE13      29.88R
CONCORDIA      CLEAR     79  64  60 S13       29.90R
SALINA         CLEAR     82  64  54 SE14      29.90R
TOPEKA         CLEAR     77  70  79 SE6       29.94R



USA.gov is the U.S. government's official web portal to all federal, state and local government web resources and services.